Las Vegas, NV

8:47 AM PST on January 20, 2017 (GMT -0800)
North Las Vegas

Weather History for KVGT - December, 2013

Change the Weather History Date:

Tuesday, December 3, 2013

  Actual Average Record
Temperature  
Mean Temperature 55 °F 49 °F  
Max Temperature 69 °F 59 °F 69 °F (2013)
Min Temperature 41 °F 40 °F 33 °F (2006)
Degree Days  
Heating Degree Days 10 16  
Month to date heating degree days 46  
Since 1 July heating degree days 359  
Cooling Degree Days 0 0  
Month to date cooling degree days 0  
Year to date cooling degree days 3294  
Growing Degree Days 5 (Base 50)    
Moisture  
Dew Point 34 °F    
Average Humidity 52    
Maximum Humidity 71    
Minimum Humidity 31    
Precipitation  
Precipitation 0.00 in 0.01 in 0.11 in (1954)
Month to date precipitation 0.04  
Year to date precipitation 4.84  
Sea Level Pressure  
Sea Level Pressure 29.61 in    
Wind  
Wind Speed 11 mph (NW)    
Max Wind Speed 36 mph    
Max Gust Speed 46 mph    
Visibility 10 miles    
Events      
T = Trace of Precipitation, MM = Missing Value Source: NWS Daily Summary

Daily Weather History Graph

Daily Weather History Graph

Search for Another Location

Airport or City:

Trip Planner

Search our weather history database for the weather conditions in past years. The results will help you decide how hot, cold, wet, or windy it might be!

Date:

Astronomy

Dec. 03, 2013 Rise Set
Actual Time 6:35 AM PST 4:25 PM PST
Civil Twilight 6:07 AM PST 4:54 PM PST
Nautical Twilight 5:35 AM PST 5:26 PM PST
Astronomical Twilight 5:04 AM PST 5:57 PM PST
Moon 7:09 AM PST (12/3) 5:33 PM PST (12/3)
Length of Visible Light 10h 47m
Length of Day
9h 50m
New Moon, 1% of the Moon is Illuminated
Dec 3
New Moon
Dec 9
First Quarter
Dec 17
Full
Dec 25
Last Quarter
Jan 1
New

Hourly Weather History & Observations

Time (PST) Temp. Windchill Dew Point Humidity Pressure Visibility Wind Dir Wind Speed Gust Speed Precip Events Conditions
12:53 AM 46.0 °F 43.1 °F 36.0 °F 68% 29.79 in 10.0 mi NNW 5.8 mph - N/A   Clear
1:53 AM 45.0 °F 41.8 °F 36.0 °F 71% 29.77 in 10.0 mi North 5.8 mph - N/A   Clear
2:53 AM 45.0 °F 41.8 °F 35.1 °F 68% 29.75 in 10.0 mi NNW 5.8 mph - N/A   Clear
3:53 AM 44.1 °F 39.5 °F 35.1 °F 71% 29.73 in 10.0 mi North 8.1 mph - N/A   Clear
4:53 AM 44.1 °F 39.5 °F 35.1 °F 71% 29.72 in 10.0 mi North 8.1 mph - N/A   Clear
5:53 AM 44.1 °F - 35.1 °F 71% 29.73 in 10.0 mi Calm Calm - N/A   Clear
6:53 AM 45.0 °F - 34.0 °F 65% 29.74 in 10.0 mi Calm Calm - N/A   Clear
7:53 AM 45.0 °F 43.5 °F 35.1 °F 68% 29.74 in 9.0 mi NNW 3.5 mph - N/A   Clear
8:53 AM 46.9 °F - 36.0 °F 66% 29.73 in 10.0 mi Calm Calm - N/A   Clear
9:53 AM 51.1 °F - 36.0 °F 56% 29.69 in 10.0 mi SE 5.8 mph - N/A   Clear
10:53 AM 54.0 °F - 36.0 °F 51% 29.63 in 10.0 mi East 6.9 mph - N/A   Clear
11:53 AM 57.9 °F - 35.1 °F 42% 29.57 in 10.0 mi Calm Calm - N/A   Clear
12:53 PM 64.9 °F - 33.1 °F 31% 29.50 in 10.0 mi Variable 3.5 mph 16.1 mph N/A   Clear
1:53 PM 68.0 °F - 36.0 °F 31% 29.47 in 10.0 mi SSW 17.3 mph - N/A   Clear
2:53 PM 69.1 °F - 37.0 °F 31% 29.47 in 10.0 mi West 17.3 mph 24.2 mph N/A   Clear
3:53 PM 66.9 °F - 36.0 °F 32% 29.42 in 10.0 mi WSW 21.9 mph 35.7 mph N/A   Clear
4:53 PM 66.9 °F - 35.1 °F 31% 29.42 in 10.0 mi West 24.2 mph 32.2 mph N/A   Clear
5:53 PM 66.0 °F - 35.1 °F 32% 29.41 in 10.0 mi West 29.9 mph 40.3 mph N/A   Clear
6:53 PM 63.0 °F - 36.0 °F 37% 29.43 in 10.0 mi West 34.5 mph 43.7 mph N/A   Clear
7:53 PM 62.1 °F - 36.0 °F 38% 29.47 in 10.0 mi WSW 35.7 mph 46.0 mph N/A   Clear
8:48 PM 53.6 °F - 28.4 °F 38% 29.52 in 10.0 mi NW 15.0 mph - N/A   Mostly Cloudy
8:53 PM 53.1 °F - 28.9 °F 40% 29.57 in 10.0 mi NW 21.9 mph 27.6 mph N/A   Mostly Cloudy
9:53 PM 46.0 °F 36.7 °F 30.9 °F 56% 29.61 in 10.0 mi NNW 29.9 mph 41.4 mph 0.00 in   Overcast
10:53 PM 41.0 °F 29.7 °F 32.0 °F 70% 29.67 in 10.0 mi NNW 31.1 mph 39.1 mph 0.00 in   Overcast
11:53 PM 42.1 °F 30.8 °F 28.0 °F 58% 29.69 in 10.0 mi NW 33.4 mph 40.3 mph 0.00 in   Overcast